Location: Lake of the Woods (North-East)
(49.6672°N, 94.8656°W)
Time: 17:27:27
(UTC-05:00)

ISS - All Passes

Search period start: 04 July 2015 00:00
Search period end: 14 July 2015 00:00
Orbit: 398 x 403 km, 51.6° (Epoch: 04 July)

Date Brightness Start Highest point End Pass type
(mag) Time Alt. Az. Time Alt. Az. Time Alt. Az.
04 Jul - 08:25:37 10° SSE 08:26:21 11° SE 08:27:12 10° ESE daylight
04 Jul - 09:59:02 10° SW 10:02:11 50° SSE 10:05:21 10° ENE daylight
04 Jul - 11:35:20 10° W 11:38:34 63° N 11:41:48 10° ENE daylight
04 Jul - 13:11:54 10° WNW 13:15:10 72° NNE 13:18:24 10° E daylight
04 Jul - 14:48:25 10° W 14:51:26 35° SSW 14:54:26 10° SE daylight
05 Jul - 09:05:52 10° SSW 09:08:46 31° SSE 09:11:44 10° E daylight
05 Jul - 10:41:46 10° W 10:45:01 76° NNW 10:48:16 10° ENE daylight
05 Jul - 12:18:21 10° WNW 12:21:35 61° N 12:24:49 10° E daylight
05 Jul - 13:54:49 10° WNW 13:58:01 56° SSW 14:01:12 10° SE daylight
05 Jul - 15:32:26 10° WSW 15:33:53 12° SW 15:35:15 10° SSW daylight
06 Jul - 08:13:00 10° S 08:15:25 20° SE 08:17:53 10° E daylight
06 Jul - 09:48:13 10° WSW 09:51:29 81° SSE 09:54:44 10° ENE daylight
06 Jul - 11:24:46 10° W 11:28:00 58° N 11:31:13 10° E daylight
06 Jul - 13:01:16 10° WNW 13:04:31 82° SSW 13:07:46 10° ESE daylight
06 Jul - 14:38:06 10° W 14:40:35 20° SW 14:43:02 10° SSE daylight
07 Jul - 07:20:48 10° SSE 07:22:06 12° SE 07:23:29 10° ESE daylight
07 Jul - 08:54:47 10° SW 08:57:58 55° SSE 09:01:10 10° ENE daylight
07 Jul - 10:31:10 10° W 10:34:23 61° N 10:37:37 10° ENE daylight
07 Jul - 12:07:43 10° WNW 12:10:58 75° NNE 12:14:13 10° E daylight
07 Jul - 13:44:15 10° W 13:47:12 32° SSW 13:50:09 10° SSE daylight
08 Jul - 08:01:32 10° SW 08:04:31 35° SSE 08:07:32 10° E daylight
08 Jul - 09:37:32 10° W 09:40:47 72° NNW 09:44:03 10° ENE daylight
08 Jul - 11:14:08 10° WNW 11:17:23 63° N 11:20:36 10° E daylight
08 Jul - 12:50:35 10° WNW 12:53:46 51° SSW 12:56:55 10° SE daylight
08 Jul - 14:28:37 10° WSW 14:29:36 11° SW 14:30:27 10° SSW daylight
09 Jul - 07:08:33 10° SSW 07:11:06 22° SE 07:13:43 10° E daylight
09 Jul - 08:43:57 10° WSW 08:47:12 87° SSE 08:50:28 10° ENE daylight
09 Jul - 10:20:31 10° W 10:23:44 58° N 10:26:58 10° E daylight
09 Jul - 11:56:59 10° WNW 12:00:15 77° SSW 12:03:29 10° ESE daylight
09 Jul - 13:33:55 10° W 13:36:16 18° SW 13:38:34 10° S daylight
10 Jul - 06:16:06 10° SSE 06:17:45 13° SE 06:19:28 10° ESE daylight
10 Jul - 07:50:27 10° SW 07:53:39 60° SSE 07:56:53 10° ENE daylight
10 Jul - 09:26:52 10° W 09:30:06 60° N 09:33:19 10° ENE daylight
10 Jul - 11:03:24 10° WNW 11:06:40 79° NNE 11:09:55 10° ESE daylight
10 Jul - 12:39:58 10° W 12:42:52 29° SSW 12:45:44 10° SSE daylight
11 Jul - 06:57:06 10° SW 07:00:10 38° SSE 07:03:13 10° E daylight
11 Jul - 08:33:12 10° W 08:36:27 69° NNW 08:39:42 10° ENE daylight
11 Jul - 10:09:47 10° WNW 10:13:02 64° N 10:16:16 10° E daylight
11 Jul - 11:46:15 10° WNW 11:49:23 46° SSW 11:52:31 10° SE daylight
12 Jul - 06:04:00 10° SSW 06:06:42 24° SE 06:09:25 10° E daylight
12 Jul - 07:39:34 10° WSW 07:42:49 88° NNW 07:46:05 10° ENE daylight
12 Jul - 09:16:08 10° WNW 09:19:22 58° N 09:22:35 10° E daylight
12 Jul - 10:52:36 10° WNW 10:55:51 71° SSW 10:59:05 10° ESE daylight
12 Jul - 12:29:40 10° W 12:31:50 17° SW 12:33:57 10° S daylight
13 Jul - 05:11:22 10° S 05:13:17 15° SE 05:15:16 10° ESE daylight
13 Jul - 06:46:00 10° WSW 06:49:13 65° SSE 06:52:28 10° ENE daylight
13 Jul - 08:22:28 10° W 08:25:41 59° N 08:28:55 10° ENE daylight
13 Jul - 09:58:59 10° WNW 10:02:14 83° NNE 10:05:30 10° ESE daylight
13 Jul - 11:35:37 10° W 11:38:25 26° SW 11:41:11 10° SSE daylight
